| time (UTC) | temp F | wind direction | speed MPH | gust MPH | rain 1hr in | rain 24hr in | rain mn in | humidity % | barometer mb |
| 20260509171559 | 57 | 292 | 4.0 | 7.0 | 0.00 | 0.00 | 0.00 | 1 | 1018.0 |
| 20260509171015 | 57 | 323 | 2.0 | 8.0 | 0.00 | 0.00 | 0.00 | 1 | 1018.0 |
| 20260509170515 | 57 | 277 | 5.0 | 10.0 | 0.00 | 0.00 | 0.00 | 1 | 1017.8 |
| 20260509170051 | 57 | 338 | 7.0 | 10.0 | 0.00 | 0.00 | 0.00 | 1 | 1017.9 |
| 20260509165516 | 57 | 340 | 5.0 | 12.0 | 0.00 | 0.00 | 0.00 | 1 | 1018.0 |
| 20260509165016 | 57 | 280 | 3.0 | 12.0 | 0.00 | 0.00 | 0.00 | 1 | 1017.9 |
| 20260509164552 | 57 | 330 | 5.0 | 12.0 | 0.00 | 0.00 | 0.00 | 1 | 1017.8 |
| 20260509164018 | 57 | 91 | 4.0 | 9.0 | 0.00 | 0.00 | 0.00 | 1 | 1017.9 |
| 20260509163516 | 57 | 157 | 4.0 | 7.0 | 0.00 | 0.00 | 0.00 | 1 | 1018.0 |
| 20260509163053 | 57 | 130 | 1.0 | 7.0 | 0.00 | 0.00 | 0.00 | 1 | 1018.0 |
| 20260509162515 | 57 | 175 | 4.0 | 9.0 | 0.00 | 0.00 | 0.00 | 1 | 1018.0 |
| 20260509162017 | 57 | 161 | 5.0 | 9.0 | 0.00 | 0.00 | 0.00 | 1 | 1018.0 |
| 20260509161549 | 57 | 342 | 1.0 | 3.0 | 0.00 | 0.00 | 0.00 | 1 | 1017.7 |
| 20260509161015 | 57 | 342 | 0.0 | 6.0 | 0.00 | 0.00 | 0.00 | 1 | 1017.8 |
| 20260509160514 | 57 | 342 | 1.0 | 12.0 | 0.00 | 0.00 | 0.00 | 1 | 1018.0 |
| 20260509160050 | 57 | 355 | 5.0 | 13.0 | 0.00 | 0.00 | 0.00 | 1 | 1017.6 |
| 20260509155507 | 57 | 336 | 9.0 | 13.0 | 0.00 | 0.00 | 0.00 | 1 | 1017.4 |
| 20260509155019 | 57 | 321 | 0.0 | 8.0 | 0.00 | 0.00 | 0.00 | 1 | 1017.4 |
| 20260509154548 | 58 | 218 | 3.0 | 7.0 | 0.00 | 0.00 | 0.00 | 1 | 1017.5 |
| 20260509154025 | 58 | 222 | 4.0 | 8.0 | 0.00 | 0.00 | 0.00 | 1 | 1017.5 |
| 20260509153515 | 58 | 207 | 5.0 | 8.0 | 0.00 | 0.00 | 0.00 | 1 | 1017.5 |
| 20260509153043 | 58 | 222 | 0.0 | 6.0 | 0.00 | 0.00 | 0.00 | 1 | 1017.5 |
| 20260509152526 | 58 | 222 | 1.0 | 6.0 | 0.00 | 0.00 | 0.00 | 1 | 1017.5 |
| 20260509152018 | 57 | 315 | 1.0 | 5.0 | 0.00 | 0.00 | 0.00 | 1 | 1017.4 |
| 20260509151547 | 57 | 319 | 1.0 | 5.0 | 0.00 | 0.00 | 0.00 | 1 | 1017.4 |
| 20260509151016 | 57 | 257 | 3.0 | 5.0 | 0.00 | 0.00 | 0.00 | 1 | 1017.2 |
| 20260509150517 | 57 | 219 | 1.0 | 4.0 | 0.00 | 0.00 | 0.00 | 1 | 1017.2 |
| 20260509150052 | 58 | 219 | 0.0 | 4.0 | 0.00 | 0.00 | 0.00 | 1 | 1017.3 |
| 20260509145531 | 57 | 336 | 0.0 | 0.0 | 0.00 | 0.00 | 0.00 | 1 | 1017.1 |
| 20260509145020 | 57 | 336 | 0.0 | 1.0 | 0.00 | 0.00 | 0.00 | 1 | 1017.0 |
| 20260509144551 | 56 | 336 | 0.0 | 3.0 | 0.00 | 0.00 | 0.00 | 1 | 1017.0 |
| 20260509144017 | 56 | 336 | 0.0 | 3.0 | 0.00 | 0.00 | 0.00 | 1 | 1016.8 |
| 20260509143516 | 56 | 336 | 0.0 | 2.0 | 0.00 | 0.00 | 0.00 | 1 | 1017.0 |
| 20260509143051 | 56 | 336 | 0.0 | 0.0 | 0.00 | 0.00 | 0.00 | 1 | 1017.1 |
| 20260509142517 | 55 | 336 | 0.0 | 1.0 | 0.00 | 0.00 | 0.00 | 1 | 1016.8 |
| 20260509142022 | 55 | 336 | 0.0 | 3.0 | 0.00 | 0.00 | 0.00 | 1 | 1016.8 |
| 20260509141552 | 54 | 336 | 0.0 | 3.0 | 0.00 | 0.00 | 0.00 | 1 | 1016.7 |
| 20260509141017 | 54 | 336 | 1.0 | 4.0 | 0.00 | 0.00 | 0.00 | 1 | 1016.7 |
| 20260509140518 | 54 | 5 | 1.0 | 6.0 | 0.00 | 0.00 | 0.00 | 1 | 1016.7 |
| 20260509140041 | 53 | 5 | 4.0 | 8.0 | 0.00 | 0.00 | 0.00 | 1 | 1016.6 |
| 20260509135517 | 53 | 5 | 5.0 | 9.0 | 0.00 | 0.00 | 0.00 | 1 | 1016.7 |
| 20260509135020 | 53 | 351 | 5.0 | 9.0 | 0.00 | 0.00 | 0.00 | 1 | 1016.6 |
| 20260509134550 | 53 | 360 | 3.0 | 8.0 | 0.00 | 0.00 | 0.00 | 1 | 1016.7 |
| 20260509134017 | 52 | 344 | 4.0 | 8.0 | 0.00 | 0.00 | 0.00 | 1 | 1016.6 |
| 20260509133514 | 52 | 352 | 3.0 | 5.0 | 0.00 | 0.00 | 0.00 | 1 | 1016.5 |
| 20260509133046 | 52 | 318 | 4.0 | 6.0 | 0.00 | 0.00 | 0.00 | 1 | 1016.4 |
| 20260509132522 | 52 | 298 | 2.0 | 6.0 | 0.00 | 0.00 | 0.00 | 1 | 1016.4 |
| 20260509132021 | 52 | 278 | 4.0 | 7.0 | 0.00 | 0.00 | 0.00 | 1 | 1016.3 |
| 20260509131601 | 51 | 317 | 3.0 | 10.0 | 0.00 | 0.00 | 0.00 | 1 | 1016.4 |
| 20260509131021 | 51 | 317 | 8.0 | 10.0 | 0.00 | 0.00 | 0.00 | 1 | 1016.2 |
| 20260509130531 | 51 | 331 | 8.0 | 10.0 | 0.00 | 0.00 | 0.00 | 1 | 1016.2 |
| 20260509130131 | 51 | 325 | 8.0 | 11.0 | 0.00 | 0.00 | 0.00 | 1 | 1016.1 |
| 20260509125515 | 52 | 315 | 7.0 | 11.0 | 0.00 | 0.00 | 0.00 | 1 | 1016.1 |
| 20260509125017 | 52 | 333 | 9.0 | 11.0 | 0.00 | 0.00 | 0.00 | 1 | 1015.9 |
| 20260509124600 | 51 | 315 | 8.0 | 10.0 | 0.00 | 0.00 | 0.00 | 1 | 1015.9 |
| 20260509124017 | 51 | 319 | 8.0 | 10.0 | 0.00 | 0.00 | 0.00 | 1 | 1016.1 |
| 20260509123517 | 50 | 321 | 5.0 | 8.0 | 0.00 | 0.00 | 0.00 | 1 | 1015.9 |
| 20260509123105 | 50 | 325 | 5.0 | 6.0 | 0.00 | 0.00 | 0.00 | 1 | 1015.8 |
| 20260509122517 | 49 | 342 | 4.0 | 6.0 | 0.00 | 0.00 | 0.00 | 1 | 1015.9 |
| 20260509122017 | 49 | 342 | 4.0 | 6.0 | 0.00 | 0.00 | 0.00 | 1 | 1015.8 |
| 20260509121612 | 49 | 342 | 4.0 | 6.0 | 0.00 | 0.00 | 0.00 | 1 | 1015.7 |
| 20260509121021 | 50 | 342 | 3.0 | 5.0 | 0.00 | 0.00 | 0.00 | 1 | 1015.6 |
| 20260509120521 | 50 | 342 | 3.0 | 6.0 | 0.00 | 0.00 | 0.00 | 1 | 1015.4 |
| 20260509120116 | 49 | 342 | 4.0 | 6.0 | 0.00 | 0.00 | 0.00 | 1 | 1015.5 |
| 20260509115517 | 49 | 284 | 3.0 | 6.0 | 0.00 | 0.00 | 0.00 | 1 | 1015.5 |
| 20260509115021 | 49 | 284 | 3.0 | 6.0 | 0.00 | 0.00 | 0.00 | 1 | 1015.4 |
| 20260509114608 | 49 | 284 | 2.0 | 4.0 | 0.00 | 0.00 | 0.00 | 1 | 1015.3 |
| 20260509114020 | 50 | 284 | 3.0 | 4.0 | 0.00 | 0.00 | 0.00 | 1 | 1015.2 |
| 20260509113521 | 50 | 284 | 2.0 | 5.0 | 0.00 | 0.00 | 0.00 | 1 | 1015.2 |
| 20260509113058 | 50 | 284 | 3.0 | 5.0 | 0.00 | 0.00 | 0.00 | 1 | 1015.2 |
| 20260509112517 | 50 | 284 | 4.0 | 6.0 | 0.00 | 0.00 | 0.00 | 1 | 1015.2 |
| 20260509112017 | 51 | 284 | 3.0 | 8.0 | 0.00 | 0.00 | 0.00 | 1 | 1015.1 |
| 20260509111555 | 50 | 273 | 5.0 | 8.0 | 0.00 | 0.00 | 0.00 | 1 | 1015.0 |
| 20260509111017 | 51 | 267 | 6.0 | 8.0 | 0.00 | 0.00 | 0.00 | 1 | 1015.1 |
| 20260509110531 | 52 | 287 | 1.0 | 4.0 | 0.00 | 0.00 | 0.00 | 1 | 1015.0 |
| 20260509110104 | 51 | 345 | 0.0 | 3.0 | 0.00 | 0.00 | 0.00 | 1 | 1014.9 |
| 20260509105514 | 51 | 345 | 0.0 | 5.0 | 0.00 | 0.00 | 0.00 | 1 | 1014.8 |
| 20260509105019 | 51 | 345 | 3.0 | 5.0 | 0.00 | 0.00 | 0.00 | 1 | 1014.8 |
| 20260509104556 | 51 | 346 | 1.0 | 4.0 | 0.00 | 0.00 | 0.00 | 1 | 1014.6 |
| 20260509104017 | 51 | 345 | 0.0 | 6.0 | 0.00 | 0.00 | 0.00 | 1 | 1014.6 |
| 20260509103516 | 51 | 345 | 3.0 | 9.0 | 0.00 | 0.00 | 0.00 | 1 | 1014.6 |
| 20260509103053 | 51 | 347 | 5.0 | 9.0 | 0.00 | 0.00 | 0.00 | 1 | 1014.6 |
| 20260509102520 | 51 | 67 | 3.0 | 6.0 | 0.00 | 0.00 | 0.00 | 1 | 1014.6 |
| 20260509102026 | 52 | 67 | 3.0 | 5.0 | 0.00 | 0.00 | 0.00 | 1 | 1014.5 |
| 20260509101555 | 51 | 64 | 3.0 | 6.0 | 0.00 | 0.00 | 0.00 | 1 | 1014.5 |
| 20260509101015 | 50 | 350 | 4.0 | 6.0 | 0.00 | 0.00 | 0.00 | 1 | 1014.5 |
| 20260509100519 | 49 | 355 | 4.0 | 6.0 | 0.00 | 0.00 | 0.00 | 1 | 1014.4 |
| 20260509100045 | 49 | 19 | 3.0 | 4.0 | 0.00 | 0.00 | 0.00 | 1 | 1014.4 |
| 20260509095513 | 48 | 19 | 3.0 | 4.0 | 0.00 | 0.00 | 0.00 | 1 | 1014.5 |
| 20260509095013 | 48 | 19 | 3.0 | 4.0 | 0.00 | 0.00 | 0.00 | 1 | 1014.4 |
| 20260509094544 | 48 | 19 | 2.0 | 3.0 | 0.00 | 0.00 | 0.00 | 1 | 1014.4 |
| 20260509094015 | 48 | 19 | 1.0 | 3.0 | 0.00 | 0.00 | 0.00 | 1 | 1014.2 |
| 20260509093515 | 49 | 19 | 0.0 | 4.0 | 0.00 | 0.00 | 0.00 | 1 | 1014.2 |
| 20260509093315 | 49 | 19 | 2.0 | 4.0 | 0.00 | 0.00 | 0.00 | 1 | 1014.3 |
| 20260509092527 | 49 | 19 | 3.0 | 4.0 | 0.00 | 0.00 | 0.00 | 1 | 1014.1 |
| 20260509092016 | 49 | 19 | 1.0 | 3.0 | 0.00 | 0.00 | 0.00 | 1 | 1014.1 |
| 20260509091546 | 49 | 19 | 1.0 | 3.0 | 0.00 | 0.00 | 0.00 | 1 | 1014.1 |
| 20260509091030 | 50 | 19 | 2.0 | 4.0 | 0.00 | 0.00 | 0.00 | 1 | 1014.0 |
| 20260509090515 | 50 | 19 | 2.0 | 5.0 | 0.00 | 0.00 | 0.00 | 1 | 1014.0 |
| 20260509090049 | 50 | 19 | 3.0 | 5.0 | 0.00 | 0.00 | 0.00 | 1 | 1014.0 |
| 20260509085530 | 50 | 31 | 3.0 | 5.0 | 0.00 | 0.00 | 0.00 | 1 | 1013.9 |
| 20260509085019 | 50 | 31 | 3.0 | 5.0 | 0.00 | 0.00 | 0.00 | 1 | 1013.7 |
| 20260509084611 | 50 | 31 | 4.0 | 6.0 | 0.00 | 0.00 | 0.00 | 1 | 1013.7 |
| 20260509084020 | 50 | 31 | 4.0 | 6.0 | 0.00 | 0.00 | 0.00 | 1 | 1013.7 |
| 20260509083521 | 50 | 31 | 4.0 | 6.0 | 0.00 | 0.00 | 0.00 | 1 | 1013.8 |
| 20260509083103 | 50 | 84 | 3.0 | 4.0 | 0.00 | 0.00 | 0.00 | 1 | 1013.8 |
| 20260509082515 | 49 | 84 | 1.0 | 3.0 | 0.00 | 0.00 | 0.00 | 1 | 1013.7 |
| 20260509082015 | 49 | 84 | 0.0 | 0.0 | 0.00 | 0.00 | 0.00 | 1 | 1013.8 |
| 20260509081550 | 49 | 84 | 0.0 | 2.0 | 0.00 | 0.00 | 0.00 | 1 | 1013.8 |
| 20260509081021 | 50 | 84 | 0.0 | 3.0 | 0.00 | 0.00 | 0.00 | 1 | 1013.7 |
| 20260509080515 | 50 | 84 | 2.0 | 3.0 | 0.00 | 0.00 | 0.00 | 1 | 1013.7 |
| 20260509080049 | 51 | 84 | 0.0 | 0.0 | 0.00 | 0.00 | 0.00 | 1 | 1013.7 |
| 20260509075520 | 51 | 84 | 0.0 | 0.0 | 0.00 | 0.00 | 0.00 | 1 | 1013.7 |
| 20260509075014 | 52 | 84 | 0.0 | 0.0 | 0.00 | 0.00 | 0.00 | 1 | 1013.6 |
| 20260509074550 | 52 | 84 | 0.0 | 0.0 | 0.00 | 0.00 | 0.00 | 1 | 1013.6 |
| 20260509074015 | 52 | 84 | 0.0 | 0.0 | 0.00 | 0.00 | 0.00 | 1 | 1013.6 |
| 20260509073516 | 52 | 84 | 0.0 | 0.0 | 0.00 | 0.00 | 0.00 | 1 | 1013.6 |
| 20260509073046 | 52 | 84 | 0.0 | 2.0 | 0.00 | 0.00 | 0.00 | 1 | 1013.6 |
| 20260509072525 | 53 | 84 | 1.0 | 3.0 | 0.00 | 0.00 | 0.00 | 1 | 1013.6 |
| 20260509072020 | 53 | 84 | 1.0 | 6.0 | 0.00 | 0.00 | 0.00 | 1 | 1013.6 |
| 20260509071547 | 53 | 84 | 2.0 | 8.0 | 0.00 | 0.00 | 0.00 | 1 | 1013.6 |
| 20260509071015 | 53 | 84 | 4.0 | 9.0 | 0.00 | 0.00 | 0.00 | 1 | 1013.4 |
| 20260509070514 | 53 | 67 | 6.0 | 9.0 | 0.00 | 0.00 | 0.00 | 1 | 1013.4 |
| 20260509065513 | 53 | 76 | 7.0 | 9.0 | 0.00 | 0.00 | 0.00 | 1 | 1013.1 |
| 20260509065019 | 53 | 62 | 6.0 | 11.0 | 0.00 | 0.00 | 0.00 | 1 | 1013.1 |
| 20260509064602 | 53 | 59 | 7.0 | 11.0 | 0.00 | 0.00 | 0.00 | 1 | 1013.0 |
| 20260509064013 | 53 | 66 | 7.0 | 10.0 | 0.00 | 0.00 | 0.00 | 1 | 1013.0 |
| 20260509063517 | 54 | 57 | 7.0 | 11.0 | 0.00 | 0.00 | 0.00 | 1 | 1012.8 |
| 20260509063309 | 54 | 55 | 7.0 | 11.0 | 0.00 | 0.00 | 0.00 | 1 | 1012.9 |
| 20260509062516 | 54 | 57 | 7.0 | 10.0 | 0.00 | 0.00 | 0.00 | 1 | 1012.8 |
| 20260509062017 | 54 | 77 | 8.0 | 11.0 | 0.00 | 0.00 | 0.00 | 1 | 1012.8 |
| 20260509061620 | 54 | 56 | 8.0 | 11.0 | 0.00 | 0.00 | 0.00 | 1 | 1012.7 |
| 20260509061016 | 54 | 74 | 9.0 | 12.0 | 0.00 | 0.00 | 0.00 | 1 | 1012.7 |
| 20260509060517 | 54 | 65 | 9.0 | 12.0 | 0.00 | 0.00 | 0.00 | 1 | 1012.7 |
| 20260509060057 | 55 | 58 | 8.0 | 15.0 | 0.00 | 0.00 | 0.00 | 1 | 1012.7 |
| 20260509055516 | 55 | 61 | 11.0 | 15.0 | 0.00 | 0.00 | 0.00 | 1 | 1012.7 |
| 20260509055016 | 55 | 63 | 11.0 | 15.0 | 0.00 | 0.00 | 0.00 | 1 | 1012.4 |
| 20260509054615 | 55 | 49 | 10.0 | 13.0 | 0.00 | 0.00 | 0.00 | 1 | 1012.4 |
| 20260509054013 | 55 | 69 | 10.0 | 15.0 | 0.00 | 0.00 | 0.00 | 1 | 1012.4 |
| 20260509053518 | 55 | 65 | 12.0 | 15.0 | 0.00 | 0.00 | 0.00 | 1 | 1012.4 |
| 20260509053143 | 55 | 69 | 10.0 | 17.0 | 0.00 | 0.00 | 0.00 | 1 | 1012.4 |
| 20260509052520 | 56 | 72 | 11.0 | 17.0 | 0.00 | 0.00 | 0.00 | 1 | 1012.4 |
| 20260509052016 | 56 | 49 | 10.0 | 15.0 | 0.00 | 0.00 | 0.00 | 1 | 1012.5 |
| 20260509051559 | 56 | 56 | 10.0 | 17.0 | 0.00 | 0.00 | 0.00 | 1 | 1012.3 |
| 20260509051016 | 56 | 46 | 12.0 | 17.0 | 0.00 | 0.00 | 0.00 | 1 | 1012.4 |
| 20260509050518 | 57 | 62 | 7.0 | 12.0 | 0.00 | 0.00 | 0.00 | 1 | 1012.4 |
| 20260509045516 | 58 | 116 | 3.0 | 8.0 | 0.00 | 0.00 | 0.00 | 1 | 1012.3 |
| 20260509045016 | 58 | 106 | 1.0 | 10.0 | 0.00 | 0.00 | 0.00 | 1 | 1012.3 |
| 20260509044553 | 58 | 84 | 2.0 | 10.0 | 0.00 | 0.00 | 0.00 | 1 | 1012.2 |
| 20260509044015 | 58 | 168 | 5.0 | 8.0 | 0.00 | 0.00 | 0.00 | 1 | 1012.2 |
| 20260509043517 | 58 | 192 | 4.0 | 8.0 | 0.00 | 0.00 | 0.00 | 1 | 1012.3 |
| 20260509043042 | 58 | 157 | 5.0 | 8.0 | 0.00 | 0.00 | 0.00 | 1 | 1012.0 |
| 20260509042519 | 59 | 171 | 4.0 | 9.0 | 0.00 | 0.00 | 0.00 | 1 | 1011.8 |
| 20260509042017 | 60 | 339 | 2.0 | 12.0 | 0.00 | 0.00 | 0.00 | 1 | 1011.7 |
| 20260509041548 | 60 | 37 | 6.0 | 14.0 | 0.00 | 0.00 | 0.00 | 1 | 1011.4 |
| 20260509041017 | 60 | 55 | 9.0 | 17.0 | 0.00 | 0.00 | 0.00 | 1 | 1011.3 |
| 20260509040524 | 60 | 32 | 11.0 | 17.0 | 0.00 | 0.00 | 0.00 | 1 | 1011.1 |
| 20260509040113 | 60 | 49 | 9.0 | 16.0 | 0.00 | 0.00 | 0.00 | 1 | 1011.1 |
| 20260509035520 | 60 | 46 | 11.0 | 16.0 | 0.00 | 0.00 | 0.00 | 1 | 1011.0 |
| 20260509035018 | 60 | 22 | 10.0 | 19.0 | 0.00 | 0.00 | 0.00 | 1 | 1010.8 |
| 20260509034617 | 60 | 34 | 11.0 | 19.0 | 0.00 | 0.00 | 0.00 | 1 | 1010.9 |
| 20260509034020 | 60 | 37 | 10.0 | 16.0 | 0.00 | 0.00 | 0.00 | 1 | 1010.8 |
| 20260509033519 | 60 | 29 | 9.0 | 14.0 | 0.00 | 0.00 | 0.00 | 1 | 1010.8 |
| 20260509033054 | 60 | 30 | 9.0 | 14.0 | 0.00 | 0.00 | 0.00 | 1 | 1010.9 |
| 20260509032519 | 61 | 34 | 10.0 | 18.0 | 0.00 | 0.00 | 0.00 | 1 | 1010.8 |
| 20260509032018 | 61 | 32 | 14.0 | 19.0 | 0.00 | 0.00 | 0.00 | 1 | 1010.6 |
| 20260509031557 | 61 | 54 | 11.0 | 19.0 | 0.00 | 0.00 | 0.00 | 1 | 1010.4 |
| 20260509031021 | 61 | 27 | 9.0 | 16.0 | 0.00 | 0.00 | 0.00 | 1 | 1010.6 |
| 20260509030520 | 61 | 24 | 11.0 | 15.0 | 0.00 | 0.00 | 0.00 | 1 | 1010.4 |
| 20260509030108 | 60 | 14 | 9.0 | 14.0 | 0.00 | 0.00 | 0.00 | 1 | 1010.3 |
| 20260509025521 | 60 | 14 | 6.0 | 9.0 | 0.00 | 0.00 | 0.00 | 1 | 1010.3 |
| 20260509025022 | 60 | 16 | 5.0 | 8.0 | 0.00 | 0.00 | 0.00 | 1 | 1010.2 |
| 20260509024547 | 61 | 13 | 3.0 | 10.0 | 0.00 | 0.00 | 0.00 | 1 | 1010.2 |
| 20260509024017 | 61 | 13 | 7.0 | 11.0 | 0.00 | 0.00 | 0.00 | 1 | 1010.1 |
| 20260509023517 | 61 | 5 | 8.0 | 11.0 | 0.00 | 0.00 | 0.00 | 1 | 1009.9 |
| 20260509023049 | 62 | 5 | 7.0 | 11.0 | 0.00 | 0.00 | 0.00 | 1 | 1009.9 |
| 20260509022516 | 62 | 5 | 8.0 | 13.0 | 0.00 | 0.00 | 0.00 | 1 | 1009.8 |
| 20260509022017 | 62 | 11 | 10.0 | 13.0 | 0.00 | 0.00 | 0.00 | 1 | 1009.6 |
| 20260509021602 | 62 | 360 | 8.0 | 11.0 | 0.00 | 0.00 | 0.00 | 1 | 1009.8 |
| 20260509021021 | 63 | 5 | 6.0 | 12.0 | 0.00 | 0.00 | 0.00 | 1 | 1009.8 |
| 20260509020521 | 63 | 11 | 7.0 | 14.0 | 0.00 | 0.00 | 0.00 | 1 | 1009.7 |
| 20260509020057 | 64 | 5 | 10.0 | 14.0 | 0.00 | 0.00 | 0.00 | 1 | 1009.6 |
| 20260509015520 | 64 | 10 | 9.0 | 14.0 | 0.00 | 0.00 | 0.00 | 1 | 1009.6 |
| 20260509015017 | 64 | 5 | 10.0 | 17.0 | 0.00 | 0.00 | 0.00 | 1 | 1009.6 |
| 20260509014554 | 64 | 348 | 12.0 | 18.0 | 0.00 | 0.00 | 0.00 | 1 | 1009.6 |
| 20260509014021 | 65 | 360 | 12.0 | 18.0 | 0.00 | 0.00 | 0.00 | 1 | 1009.6 |
| 20260509013523 | 65 | 360 | 13.0 | 16.0 | 0.00 | 0.00 | 0.00 | 1 | 1009.8 |
| 20260509013059 | 65 | 338 | 11.0 | 14.0 | 0.00 | 0.00 | 0.00 | 1 | 1009.8 |
| 20260509012513 | 66 | 360 | 11.0 | 17.0 | 0.00 | 0.00 | 0.00 | 1 | 1009.6 |
| 20260509012016 | 66 | 11 | 11.0 | 17.0 | 0.00 | 0.00 | 0.00 | 1 | 1009.7 |
| 20260509011549 | 66 | 355 | 12.0 | 20.0 | 0.00 | 0.00 | 0.00 | 1 | 1009.6 |
| 20260509011020 | 66 | 337 | 14.0 | 19.0 | 0.00 | 0.00 | 0.00 | 1 | 1009.7 |
| 20260509010519 | 66 | 351 | 13.0 | 20.0 | 0.00 | 0.00 | 0.00 | 1 | 1009.8 |
| 20260509010055 | 66 | 355 | 16.0 | 23.0 | 0.00 | 0.00 | 0.00 | 1 | 1009.8 |
| 20260509005517 | 67 | 350 | 18.0 | 23.0 | 0.00 | 0.00 | 0.00 | 1 | 1009.6 |
| 20260509005017 | 67 | 321 | 16.0 | 22.0 | 0.00 | 0.00 | 0.00 | 1 | 1009.9 |
| 20260509004541 | 67 | 320 | 16.0 | 20.0 | 0.00 | 0.00 | 0.00 | 1 | 1009.7 |
| 20260509004013 | 67 | 355 | 12.0 | 22.0 | 0.00 | 0.00 | 0.00 | 1 | 1009.7 |
| 20260509003515 | 67 | 336 | 18.0 | 22.0 | 0.00 | 0.00 | 0.00 | 1 | 1009.5 |
| 20260509003104 | 68 | 323 | 17.0 | 22.0 | 0.00 | 0.00 | 0.00 | 1 | 1009.6 |
| 20260509002513 | 68 | 360 | 15.0 | 23.0 | 0.00 | 0.00 | 0.00 | 1 | 1009.7 |
| 20260509002014 | 68 | 333 | 17.0 | 23.0 | 0.00 | 0.00 | 0.00 | 1 | 1009.5 |
| 20260509001539 | 68 | 339 | 17.0 | 23.0 | 0.00 | 0.00 | 0.00 | 1 | 1009.3 |
| 20260509001013 | 68 | 309 | 18.0 | 23.0 | 0.00 | 0.00 | 0.00 | 1 | 1009.6 |
| 20260509000519 | 69 | 300 | 15.0 | 27.0 | 0.00 | 0.00 | 0.00 | 1 | 1009.5 |
| 20260509000106 | 69 | 294 | 19.0 | 27.0 | 0.00 | 0.00 | 0.00 | 1 | 1009.5 |
| 20260508235514 | 69 | 300 | 15.0 | 23.0 | 0.00 | 0.00 | 0.00 | 1 | 1009.5 |
| 20260508235016 | 68 | 336 | 15.0 | 26.0 | 0.00 | 0.00 | 0.00 | 1 | 1009.3 |
| 20260508234550 | 68 | 336 | 17.0 | 26.0 | 0.00 | 0.00 | 0.00 | 1 | 1009.5 |
| 20260508234010 | 69 | 303 | 20.0 | 27.0 | 0.00 | 0.00 | 0.00 | 1 | 1009.5 |
| 20260508233528 | 69 | 336 | 19.0 | 27.0 | 0.00 | 0.00 | 0.00 | 1 | 1009.5 |
| 20260508233311 | 69 | 303 | 16.0 | 24.0 | 0.00 | 0.00 | 0.00 | 1 | 1009.6 |
| 20260508232521 | 69 | 314 | 18.0 | 28.0 | 0.00 | 0.00 | 0.00 | 1 | 1009.6 |
| 20260508232020 | 69 | 294 | 20.0 | 32.0 | 0.00 | 0.00 | 0.00 | 1 | 1009.8 |
| 20260508231609 | 70 | 313 | 17.0 | 32.0 | 0.00 | 0.00 | 0.00 | 1 | 1009.2 |
| 20260508231017 | 70 | 325 | 18.0 | 30.0 | 0.00 | 0.00 | 0.00 | 1 | 1009.4 |
| 20260508230518 | 71 | 360 | 20.0 | 29.0 | 0.00 | 0.00 | 0.00 | 1 | 1009.4 |
| 20260508230107 | 71 | 270 | 14.0 | 23.0 | 0.00 | 0.00 | 0.00 | 1 | 1009.6 |
| 20260508225523 | 71 | 313 | 18.0 | 28.0 | 0.00 | 0.00 | 0.00 | 1 | 1009.4 |
| 20260508225027 | 70 | 286 | 19.0 | 28.0 | 0.00 | 0.00 | 0.00 | 1 | 1009.5 |
| 20260508224546 | 70 | 348 | 19.0 | 27.0 | 0.00 | 0.00 | 0.00 | 1 | 1009.4 |
| 20260508224014 | 71 | 300 | 20.0 | 30.0 | 0.00 | 0.00 | 0.00 | 1 | 1009.6 |
| 20260508223519 | 71 | 309 | 19.0 | 30.0 | 0.00 | 0.00 | 0.00 | 1 | 1009.3 |
| 20260508223051 | 70 | 317 | 19.0 | 27.0 | 0.00 | 0.00 | 0.00 | 1 | 1009.6 |
| 20260508222516 | 70 | 304 | 17.0 | 28.0 | 0.00 | 0.00 | 0.00 | 1 | 1009.7 |
| 20260508222013 | 71 | 327 | 21.0 | 28.0 | 0.00 | 0.00 | 0.00 | 1 | 1009.6 |
| 20260508221547 | 71 | 315 | 19.0 | 30.0 | 0.00 | 0.00 | 0.00 | 1 | 1009.4 |
| 20260508221028 | 71 | 331 | 20.0 | 30.0 | 0.00 | 0.00 | 0.00 | 1 | 1009.4 |
| 20260508220521 | 70 | 298 | 19.0 | 29.0 | 0.00 | 0.00 | 0.00 | 1 | 1009.5 |
| 20260508220047 | 71 | 311 | 22.0 | 30.0 | 0.00 | 0.00 | 0.00 | 1 | 1010.0 |
| 20260508215516 | 71 | 323 | 22.0 | 32.0 | 0.00 | 0.00 | 0.00 | 1 | 1009.5 |
| 20260508215020 | 70 | 314 | 19.0 | 27.0 | 0.00 | 0.00 | 0.00 | 1 | 1009.8 |
| 20260508214546 | 71 | 329 | 21.0 | 28.0 | 0.00 | 0.00 | 0.00 | 1 | 1009.5 |
| 20260508214016 | 71 | 317 | 18.0 | 28.0 | 0.00 | 0.00 | 0.00 | 1 | 1009.7 |
| 20260508213514 | 71 | 306 | 18.0 | 26.0 | 0.00 | 0.00 | 0.00 | 1 | 1009.8 |
| 20260508213055 | 71 | 254 | 18.0 | 28.0 | 0.00 | 0.00 | 0.00 | 1 | 1010.0 |
| 20260508212515 | 71 | 271 | 15.0 | 28.0 | 0.00 | 0.00 | 0.00 | 1 | 1010.2 |
| 20260508212013 | 71 | 298 | 20.0 | 29.0 | 0.00 | 0.00 | 0.00 | 1 | 1010.1 |
| 20260508211556 | 70 | 311 | 18.0 | 29.0 | 0.00 | 0.00 | 0.00 | 1 | 1009.9 |
| 20260508211020 | 71 | 303 | 16.0 | 27.0 | 0.00 | 0.00 | 0.00 | 1 | 1010.1 |
| 20260508210513 | 70 | 302 | 17.0 | 29.0 | 0.00 | 0.00 | 0.00 | 1 | 1009.9 |
| 20260508210055 | 71 | 302 | 18.0 | 29.0 | 0.00 | 0.00 | 0.00 | 1 | 1009.6 |
| 20260508205517 | 71 | 317 | 18.0 | 29.0 | 0.00 | 0.00 | 0.00 | 1 | 1009.7 |
| 20260508205017 | 70 | 271 | 15.0 | 31.0 | 0.00 | 0.00 | 0.00 | 1 | 1010.1 |
| 20260508204552 | 71 | 303 | 20.0 | 34.0 | 0.00 | 0.00 | 0.00 | 1 | 1010.1 |
| 20260508204016 | 70 | 321 | 25.0 | 34.0 | 0.00 | 0.00 | 0.00 | 1 | 1009.7 |
| 20260508203515 | 70 | 307 | 15.0 | 28.0 | 0.00 | 0.00 | 0.00 | 1 | 1009.9 |
| 20260508203053 | 70 | 281 | 16.0 | 28.0 | 0.00 | 0.00 | 0.00 | 1 | 1010.0 |
| 20260508202516 | 70 | 277 | 16.0 | 30.0 | 0.00 | 0.00 | 0.00 | 1 | 1010.2 |
| 20260508202016 | 70 | 260 | 20.0 | 30.0 | 0.00 | 0.00 | 0.00 | 1 | 1009.9 |
| 20260508201609 | 70 | 270 | 14.0 | 28.0 | 0.00 | 0.00 | 0.00 | 1 | 1010.1 |
| 20260508201019 | 70 | 286 | 20.0 | 28.0 | 0.00 | 0.00 | 0.00 | 1 | 1010.1 |
| 20260508200527 | 70 | 252 | 15.0 | 25.0 | 0.00 | 0.00 | 0.00 | 1 | 1010.2 |
| 20260508200109 | 70 | 290 | 17.0 | 25.0 | 0.00 | 0.00 | 0.00 | 1 | 1010.2 |
| 20260508195519 | 70 | 308 | 16.0 | 25.0 | 0.00 | 0.00 | 0.00 | 1 | 1010.1 |
| 20260508195014 | 70 | 262 | 20.0 | 25.0 | 0.00 | 0.00 | 0.00 | 1 | 1010.1 |
| 20260508194559 | 70 | 299 | 17.0 | 27.0 | 0.00 | 0.00 | 0.00 | 1 | 1010.0 |
| 20260508194017 | 70 | 297 | 16.0 | 25.0 | 0.00 | 0.00 | 0.00 | 1 | 1010.2 |
| 20260508193516 | 70 | 308 | 17.0 | 28.0 | 0.00 | 0.00 | 0.00 | 1 | 1010.1 |
| 20260508193111 | 70 | 280 | 18.0 | 27.0 | 0.00 | 0.00 | 0.00 | 1 | 1010.1 |
| 20260508192516 | 70 | 274 | 18.0 | 29.0 | 0.00 | 0.00 | 0.00 | 1 | 1010.5 |
| 20260508192015 | 70 | 299 | 15.0 | 29.0 | 0.00 | 0.00 | 0.00 | 1 | 1010.3 |
| 20260508191550 | 70 | 280 | 13.0 | 25.0 | 0.00 | 0.00 | 0.00 | 1 | 1010.3 |
| 20260508191020 | 70 | 277 | 18.0 | 28.0 | 0.00 | 0.00 | 0.00 | 1 | 1010.4 |
| 20260508190517 | 69 | 308 | 12.0 | 30.0 | 0.00 | 0.00 | 0.00 | 1 | 1010.4 |
| 20260508190106 | 70 | 267 | 11.0 | 25.0 | 0.00 | 0.00 | 0.00 | 1 | 1010.5 |
| 20260508185520 | 69 | 225 | 19.0 | 25.0 | 0.00 | 0.00 | 0.00 | 1 | 1010.6 |
| 20260508185018 | 69 | 270 | 12.0 | 21.0 | 0.00 | 0.00 | 0.00 | 1 | 1010.6 |
| 20260508184602 | 70 | 254 | 15.0 | 22.0 | 0.00 | 0.00 | 0.00 | 1 | 1010.8 |
| 20260508184017 | 69 | 231 | 16.0 | 22.0 | 0.00 | 0.00 | 0.00 | 1 | 1010.8 |
| 20260508183517 | 67 | 246 | 11.0 | 37.0 | 0.00 | 0.00 | 0.00 | 1 | 1010.8 |
| 20260508183108 | 70 | 317 | 17.0 | 37.0 | 0.00 | 0.00 | 0.00 | 1 | 1010.8 |
| 20260508182518 | 69 | 250 | 10.0 | 32.0 | 0.00 | 0.00 | 0.00 | 1 | 1011.1 |
| 20260508182015 | 68 | 267 | 18.0 | 27.0 | 0.00 | 0.00 | 0.00 | 1 | 1011.1 |
| 20260508181609 | 68 | 264 | 11.0 | 26.0 | 0.00 | 0.00 | 0.00 | 1 | 1011.2 |
| 20260508181020 | 68 | 260 | 18.0 | 26.0 | 0.00 | 0.00 | 0.00 | 1 | 1011.1 |
| 20260508180524 | 68 | 260 | 15.0 | 24.0 | 0.00 | 0.00 | 0.00 | 1 | 1011.1 |
| 20260508180112 | 68 | 255 | 16.0 | 24.0 | 0.00 | 0.00 | 0.00 | 1 | 1011.1 |
| 20260508175525 | 67 | 268 | 13.0 | 22.0 | 0.00 | 0.00 | 0.00 | 1 | 1011.1 |
| 20260508175016 | 66 | 265 | 11.0 | 20.0 | 0.00 | 0.00 | 0.00 | 1 | 1011.2 |
| 20260508174609 | 66 | 229 | 13.0 | 19.0 | 0.00 | 0.00 | 0.00 | 1 | 1011.3 |
| 20260508174022 | 65 | 289 | 9.0 | 19.0 | 0.00 | 0.00 | 0.00 | 1 | 1011.4 |
| 20260508173517 | 66 | 244 | 13.0 | 18.0 | 0.00 | 0.00 | 0.00 | 1 | 1011.5 |
| 20260508173057 | 66 | 271 | 11.0 | 17.0 | 0.00 | 0.00 | 0.00 | 1 | 1011.4 |
| 20260508172517 | 66 | 286 | 10.0 | 19.0 | 0.00 | 0.00 | 0.00 | 1 | 1011.5 |
| 20260508172021 | 65 | 302 | 10.0 | 19.0 | 0.00 | 0.00 | 0.00 | 1 | 1011.7 |